This is the latest recevied weather packets stored in our database for station/object IR1AA-3. If no packets are shown the sender has not sent any weather packets the latest 10 day(s).
| Time | Temp. | Humidity | Pressure | Rain* | Wind** | Luminosity | Snow |
|---|---|---|---|---|---|---|---|
| 1777846020 | 15.56° C | 94% | 1017.7 hPa | - | - | - | - |
| 1777844220 | 15.56° C | 99% | 1017.7 hPa | - | - | - | - |
| 1777843202 | 16.11° C | 99% | 1017.9 hPa | - | - | - | - |
| 1777841402 | 16.11° C | 99% | 1017.8 hPa | - | - | - | - |
| 1777839602 | 16.11° C | 99% | 1017.6 hPa | - | - | - | - |
| 1777837801 | 16.67° C | 99% | 1017.5 hPa | - | - | - | - |
| 1777836001 | 16.67° C | 99% | 1017.2 hPa | - | - | - | - |
| 1777834201 | 17.22° C | 99% | 1017.1 hPa | - | - | - | - |
| 1777832400 | 17.22° C | 99% | 1017.1 hPa | - | - | - | - |
| 1777830600 | 17.22° C | 99% | 1017.1 hPa | - | - | - | - |
| 1777829909 | 17.78° C | 99% | 1017.1 hPa | - | - | - | - |
| 1777828109 | 17.78° C | 99% | 1017.1 hPa | - | - | - | - |
| 1777826308 | 18.33° C | 99% | 1017 hPa | - | - | - | - |
| 1777824508 | 18.33° C | 99% | 1017.6 hPa | - | - | - | - |
| 1777822708 | 18.89° C | 99% | 1017.1 hPa | - | - | - | - |
| 1777820907 | 19.44° C | 99% | 1017.1 hPa | - | - | - | - |
| 1777819107 | 19.44° C | 99% | 1017.4 hPa | - | - | - | - |
| 1777817306 | 20° C | 98% | 1017.9 hPa | - | - | - | - |
| 1777815506 | 20° C | 94% | 1018.3 hPa | - | - | - | - |
| 1777813705 | 20.56° C | 85% | 1018.1 hPa | - | - | - | - |
| 1777811905 | 20° C | 92% | 1019.3 hPa | - | - | - | - |
| 1777810105 | 20° C | 96% | 1012.4 hPa | - | - | - | - |
| 1777808304 | 20° C | 99% | 1019.2 hPa | - | - | - | - |
| 1777806504 | 19.44° C | 99% | 1019.3 hPa | - | - | - | - |
| 1777804704 | 18.33° C | 99% | 1019.6 hPa | - | - | - | - |
* Rain since midnight (hover to see other rain measurements)
** Current wind speed in m/s (hover to see current wind gust speed)